Погода Нерчинский Завод

Погода Нерчинский Завод : погода сейчас, прогноз погоды и архив. Всё, что Вы хотите узнать о погоде Нерчинский Завод!

Хотите узнать прогноз погоды Нерчинский Завод? Тогда Вам сюда: Погода Нерчинский Завод

Поиск расширенной информации на нашем сайте:

Другие новости

Новости СМИ2

Главная страница сайта

Новости сайта

02.10.2013

Напоминаем, что на нашем новом сайте вы можете получить высокодетализированные прогнозы погоды по пунктам России, СНГ и мира (включающие важные для авиации метеовеличины, такие как направление и скорость ветра, видимость, явления погоды, количество и форма облачности, нижняя и верхняя граница облачности), а также ознакомиться с разнообразными материалами по авиационной метеорологии и подборкой полезных ссылок на эту тему.

Сайт Метеоцентр.Азия посвящён разработке технологий оптимизации авиаметеорологического обслуживания, включая проектирование и перспективное создание нескольких автоматизированных авиаметеорологических систем:
- система выпуска высокодетальных прогностических карт явлений погоды для нижнего воздушного пространства по России и ближнему зарубежью;
- система верификации прогнозов TAF (выпускаемых синоптиками официальных АМСГ РФ и ближнего зарубежья) и AUTOTAF (выпускаемых сайтом Метеоцентр.Азия) - выявление ошибок, онлайн-сопоставление с фактической погодой METAR, автоматическое внесение коррективов в прогнозы при резком отклонении фактической погоды от прогноза, подсчёт оправдываемости прогнозов по элементам и в целом;
- система обработки, анализа и отображения авиаметеорологической информации для применения провайдерами метеорологической информации.

Рекомендуем: Бесплатные онлайн игры Барби для девочек.

Погода Нерчинский Завод - сегодня

Время (UTC), дата Ветер
(°,м/с) 
Видим.   Явления Облачность Т
(°С)
Тd
(°С)
f(%) Тe
(°С)
Pmin
(гПа)
dP
(гПа)
Po
(мм)
O2
(г/м3)
Тmin Tmax R s Состояние
почвы
06 20.06.17 050 (СВ) 3{10}  20000 м    3/3 1000 м 
[Cu hum]
+25 +4.9 27 +25  1006.2  -0.8  704  259           
09 20.06.17 060 (СВ) 3{10}  20000 м    1/1 1000 м 
[Cu hum]
+26.1 +1 19 +26  1005.3  -0.6  703  258           
12 20.06.17 080 (В) 20000 м    4/3 1000 м верхняя 
[Sc|Ci sp]
+22.4 +2.8 28 +22  1006.9  0.6  704  261    +26.2       
15 20.06.17 тихо ()   н/о    3/0 верхняя 
[Ci fib]
+11.5 +5.1 65 +12  1011.4  1.7  705  272           
18 20.06.17 тихо ()   н/о    ясно 
+8.9 +4.6 74 +9  1013.5  1.3  706  275           
21 20.06.17 тихо ()   20000 м    ясно 
+8.3 +5 80 +8  1014.4  0.8  706  275           
00 21.06.17 070 (В) 20000 м    ясно 
+18.6 +9.2 54 +21  1011.5  -0.2  706  265  +6.9        сухая 
03 21.06.17 360 (С) 20000 м    1/1 1000 м 
[Cu hum]
+26.1 +3.5 23 +26  1008.8  -1  705  259           
06 21.06.17 120 (ЮВ) 20000 м    6/6 1000 м 
[Cu med, cong]
+28.3 +3 20 +28  1006.2  -2  704  256           
09 21.06.17 350 (С) 20000 м    6/3 1000 м верхняя 
[Cu med, cong|Cc]
+28 +1.7 18 +28  1004.7  -1.4  703  257           
12 21.06.17 тихо ()   20000 м    6/0 средняя, верхняя 
[Ac lent|Cc]
+24.4 +5.3 29 +24  1005.9  0.3  703  259    +29.5       
15 21.06.17 070 (В) н/о    4/3 1000 м верхняя 
[Sc|Ci sp]
+16.1 +6.9 54 +17  1009  1.1  704  267           
18 21.06.17 120 (ЮВ) н/о    3/0 верхняя 
[Ci sp]
+15.2 +7.5 60 +17  1009.4  0.2  704  267           
21 21.06.17 тихо ()   20000 м    6/4 1000 м средняя, верхняя 
[Sc|Ac trans|Ci fib]
+14.8 +8.7 67 +15  1010.4  0.8  705  268           
00 22.06.17 080 (В) 20000 м    3/0 верхняя 
[Cc]
+21.6 +11.3 52 +26  1009.5  0.8  705  261  +12.1        сухая 
03 22.06.17 180 (Ю) 20000 м    1/1 600 м 
[Cu hum]
+28.3 +9 30 +29  1007.2  -0.8  705  256           
06 22.06.17 330 (СЗ) 20000 м    4/3 1000 м верхняя 
[Cu med, cong|Ci ing]
+30.5 +7.6 24 +31  1004.9  -1.6  704  254           
09 22.06.17 250 (З) 20000 м    10/8 600 м кучево-дожд., верхняя 
[Cb cap|Ci ing]
+31 +6.3 21 +31  1003.8  -1  703  253           
12 22.06.17 280 (З) 2{13}  20000 м  в посл. час гроза{ливн. осадки}  10/3 600 м кучево-дожд., средняя, верхняя 
[Cb cap|Ac cuf|Cc]
+20 +12.9 64 +27  1007.9  1.6  704  262    +31.8     
15 22.06.17 тихо ()   н/о    4/0 средняя, верхняя 
[Ac trans|Ci sp]
+14 +11.9 87 +19  1010  0.5  704  268           
18 22.06.17 150 (ЮВ) н/о    1/0 верхняя 
[Ci fib]
+12.2 +10.9 92 +17  1010.7  0.2  704  270           
21 22.06.17 тихо ()   20000 м    ясно 
+12.2 +11 92 +16  1010.8  0.1  705  270           
00 23.06.17 080 (В) 20000 м    ясно 
+20.2 +14.3 69 +29  1008.7  705  261  +10.9        влажная 
03 23.06.17 030 (СВ) 20000 м    1/1 1000 м 
[Cu med, cong]
+28.9 +15.9 45 +41  1005.4  -1.1  704  253           
06 23.06.17 310 (СЗ) 20000 м    8/4 600 м кучево-дожд., верхняя 
[Cb cap|Ci ing]
+29.7 +11.3 32 +34  1003.3  -1.8  702  253           
Время (UTC), дата Ветер
(°,м/с) 
Видим.   Явления Облачность Т
(°С)
Тd
(°С)
f(%) Тe
(°С)
Pmin
(гПа)
dP
(гПа)
Po
(мм)
O2
(г/м3)
Тmin Tmax R s Состояние
почвы

Для получения пояснительной информации подведите курсор к названию столбца.

ПОГОДА Нерчинский Завод - архив

Всё, что Вы хотите узнать о погоде Нерчинский Завод - удобно и подробно!

Выберите нужную дату (начиная с 1 января 2015* года) и нажмите кнопку "Найти".
Будут отображены архивные сводки погоды по пункту Нерчинский Завод, начиная с указанной даты.


Отображать данные в формате CSV (для использования в таблицах Excel)


Внимание! Наш архив погоды предназначен исключительно для личного некоммерческого использования в познавательных целях. Если Вам необходимы официальные справки о состоянии погоды (для производственных, юридических, коммерческих и т.п. целей), обращайтесь в органы Росгидромета.

*Примечание: данная дата относится к архиву по метеостанциям СССР (Россия, СНГ, Балтия).
Архив по метеостанциям Зарубежной Европы и Азии (кроме Китая) хранится 10 дней, по другим регионам земного шара (Китай, Африка, Америка, Австралия, Океания) - 1 день.

Нерчинский Завод - район местоположения метеостанции


Название, широта, долгота, высота метеостанции:
Нерчинский Завод 51.3°ш. 119.6°д. 619 м над ур. моря [Российская Федерация]

Дополнительная информация

В oтличие oт бoльшинства пoгoдных сайтoв мы публикуем пoдрoбную метеoинфoрмацию в детальнoм прoфессиoнальнoм фoрмате.

Характеристики температуры и влажнoсти вoздуха измеряются на высoте 2 м в тени вдали oт зданий и деревьев.
Скoрoсть ветра измеряется на высoте 10 м (на урoвне рoста челoвека скoрoсть ветра ниже в 1.5-2 раза). Если метеoстанция нахoдится в гoрoде или в лесу, тo скoрoсть ветра занижена на 2-4 м/с пo сравнению с oткрытым местoм. Скoрoсть ветра над акватoриями крупных рек и oзёр, а также на вершинах хoлмoв на 2-5 м/с выше, чем в oбычных услoвиях.
Атмoсфернoе давление в разных тoчках местнoсти мoжет значительнo oтличаться oт давления на метеoстанции, в зависимoсти oт услoвий рельефа (при пoдъёме на 10 м давление пoнижается примернo на 1 мм рт.ст.).